Wind_Speed
7 8 9 10 10 10 11 11 11 11 11 11 11 11 12 12 12 12 12 12 12 13 12 12 11 12 12 12 12 13 13 13 14 14 15 15 15 15 15 16 15 15 15
7 8 9 9 9 9 9 10 10 10 9 9 10 11 12 12 12 12 12 13 13 13 13 13 12 12 12 12 13 13 13 13 13 14 14 14 14 14 15 15 15 15 15
8 8 8 9 9 9 9 8 9 10 10 10 11 11 12 12 12 13 13 13 13 13 13 13 13 13 13 13 13 13 13 13 13 13 13 14 14 14 14 15 14 14 14
7 7 8 8 9 9 9 9 9 9 10 11 11 11 12 12 12 13 13 13 13 13 13 13 13 13 14 14 13 13 13 13 13 13 13 13 14 14 14 14 14 14 14
7 7 8 8 9 9 9 9 9 9 10 10 11 11 12 12 12 13 13 13 13 13 13 13 13 13 13 14 13 13 14 14 14 14 14 14 14 14 14 14 14 13 14
6 6 7 8 8 9 10 10 10 11 11 11 11 11 12 13 13 13 14 14 14 14 14 14 14 14 13 14 14 14 14 14 15 15 15 15 15 15 14 14 14 14 14
6 7 8 8 8 9 9 10 11 11 11 11 12 12 12 13 13 14 14 14 14 14 14 14 14 13 13 14 14 15 15 14 14 14 14 15 15 15 16 15 15 15 15
8 8 9 9 8 9 9 10 10 10 11 11 11 12 13 13 14 14 14 15 15 15 14 14 14 14 14 14 14 15 15 14 14 14 14 15 15 15 15 15 15 15 15
9 9 9 9 9 9 9 10 10 10 11 11 11 12 13 14 15 15 15 15 16 16 15 15 15 15 15 15 15 15 15 15 15 15 15 14 15 15 15 15 15 14 15
9 9 10 10 10 10 10 11 11 12 12 13 13 13 14 15 15 15 15 16 16 17 16 15 16 15 16 15 15 15 15 15 15 15 14 15 14 14 14 14 15 15 15
10 10 11 11 11 11 11 12 12 13 13 14 14 14 15 15 15 16 16 17 17 18 18 17 16 16 16 16 16 15 15 16 16 16 15 15 15 15 14 15 15 16 16
11 11 12 12 12 12 13 13 13 14 15 15 16 16 16 16 16 16 16 17 18 18 18 18 18 17 17 16 16 16 16 16 16 16 16 16 16 16 16 16 16 16 16
12 12 12 13 13 13 13 14 14 15 16 16 17 17 17 17 17 17 17 17 18 18 18 18 18 18 18 17 17 17 17 16 16 16 16 16 17 17 17 17 18 18 18
13 13 13 14 13 13 14 14 15 15 16 16 17 17 17 18 18 18 18 18 17 17 18 19 19 19 18 17 17 17 17 17 17 17 17 17 18 18 18 19 19 19 19
14 14 14 14 14 14 15 15 15 15 15 16 16 17 17 17 17 18 18 17 18 18 18 18 18 18 18 18 18 18 18 18 18 18 18 19 19 19 19 19 20 20 20
14 14 14 14 15 15 15 16 16 16 16 17 17 17 17 17 17 18 18 18 18 18 18 17 17 18 18 19 18 18 19 19 19 19 20 20 20 20 20 21 21 22 22
14 14 15 15 16 16 16 16 16 16 16 17 17 17 17 17 17 17 18 18 18 18 18 18 18 18 18 19 19 20 20 20 20 20 20 20 20 21 21 22 22 22 22
15 15 15 15 16 16 16 17 17 17 17 17 17 17 17 17 17 17 18 18 18 19 18 18 19 19 19 20 20 21 21 21 21 21 21 21 21 21 22 22 22 22 23
17 16 16 16 16 17 17 17 17 17 18 18 17 17 17 17 17 18 19 19 19 19 19 19 19 19 20 21 21 21 21 22 22 22 22 22 21 21 22 23 23 23 23
17 17 17 17 17 17 17 17 17 17 17 17 17 17 17 18 18 19 19 19 19 20 20 20 21 20 20 20 21 21 21 22 22 22 23 23 23 22 23 23 23 24 24
18 18 18 18 17 17 17 17 17 17 18 18 18 18 18 19 19 19 19 19 19 20 20 21 21 21 21 21 21 22 22 22 22 23 23 23 23 23 24 24 24 25 25
18 18 18 18 18 18 18 17 17 17 18 18 18 18 18 18 19 19 20 20 20 21 22 22 22 22 22 21 21 22 22 22 22 23 24 24 24 24 25 25 26 26 26
19 18 18 18 18 18 18 18 18 18 18 19 19 19 19 19 20 20 20 21 21 22 23 22 21 21 22 22 22 22 22 23 23 24 25 25 25 26 26 26 26 27 27
19 19 19 19 19 18 19 19 19 20 20 20 19 19 20 20 20 20 20 21 22 22 22 22 22 23 23 23 23 23 24 24 24 25 25 25 25 26 27 27 27 28 28
20 20 20 20 20 20 20 20 21 21 20 20 20 20 20 20 21 21 21 21 22 22 23 23 23 24 24 24 24 24 24 25 25 25 27 27 27 28 28 28 28 29 30
21 21 21 21 21 21 21 21 22 22 21 21 21 21 22 22 22 23 23 23 23 23 24 24 24 25 25 25 26 25 26 27 27 27 28 29 29 30 29 29 29 30 30
Wind_Direction
254 251 245 244 246 248 250 253 253 256 253 252 250 247 246 248 248 250 252 254 254 256 258 261 263 265 265 267 269 270 271 270 269 270 271 272 271 272 271 270 268 265 267
259 257 253 251 250 253 253 254 253 257 258 256 254 252 250 250 250 252 253 255 257 256 257 259 263 266 266 268 269 272 273 273 272 271 274 273 272 272 270 271 268 266 266
259 256 256 252 253 256 257 257 254 255 258 258 256 256 254 254 251 251 253 254 256 257 257 259 264 268 269 269 272 274 274 274 274 273 274 273 272 274 273 272 270 269 268
263 261 259 256 257 254 254 255 254 256 258 259 257 255 256 256 253 253 254 255 257 258 258 261 265 267 268 270 273 274 275 275 276 277 277 276 274 274 273 273 271 270 271
269 268 264 258 258 255 254 254 256 257 256 256 257 254 255 255 254 255 256 257 258 260 261 263 265 268 268 269 272 273 274 275 275 277 277 276 274 271 269 269 270 271 272
274 276 272 265 263 259 257 256 255 256 257 259 260 256 254 254 253 254 256 258 259 260 261 264 266 267 267 269 272 273 274 277 276 276 275 274 273 271 269 267 270 270 270
276 275 276 272 268 264 261 261 258 260 261 261 261 259 259 258 257 256 257 258 259 261 262 265 267 268 269 271 273 273 275 277 276 275 275 274 273 272 271 268 269 269 269
277 280 277 275 271 267 265 264 263 263 265 264 261 261 262 262 259 256 258 260 260 261 263 266 268 269 270 273 275 278 277 277 279 277 278 278 277 275 272 270 270 270 272
280 279 280 276 274 271 270 268 267 266 267 267 263 263 263 263 264 259 261 260 260 261 262 265 267 269 270 272 274 277 277 278 278 278 279 279 278 276 272 271 270 271 270
284 281 280 273 269 269 270 270 269 269 269 269 266 265 267 266 266 265 265 263 262 262 263 265 267 269 271 272 274 275 276 277 277 278 279 279 279 277 274 270 270 271 271
283 281 281 275 271 269 269 271 271 270 270 271 270 271 270 268 267 267 266 265 264 264 263 264 266 269 271 271 273 273 273 274 274 275 277 276 276 277 275 273 272 271 270
282 281 279 276 272 271 271 271 271 272 271 271 271 271 270 267 266 267 267 265 264 264 264 265 266 268 269 269 270 272 271 272 272 272 272 274 275 276 276 275 275 274 275
282 282 280 278 275 273 274 272 272 274 274 274 272 270 269 267 266 268 268 266 263 264 266 266 266 266 266 267 269 271 271 271 272 273 271 272 273 275 274 275 276 275 275
284 282 279 279 278 275 276 277 278 280 278 277 274 272 274 272 270 269 267 266 264 264 266 267 267 265 263 265 267 268 270 271 272 272 273 273 272 274 274 275 275 275 274
284 280 278 278 278 278 279 278 279 279 281 281 279 276 276 275 274 273 271 269 268 267 268 268 266 263 263 264 265 266 268 270 272 273 274 274 274 275 275 275 274 274 273
284 278 277 278 279 281 284 283 282 283 283 282 280 278 277 277 275 272 272 270 270 269 267 267 267 266 265 265 266 267 268 270 272 273 274 274 275 276 275 275 274 274 273
286 282 279 279 280 281 282 283 283 284 285 284 281 279 279 278 275 273 272 271 271 272 270 269 267 267 270 270 268 267 268 270 272 274 276 276 276 277 276 276 275 274 274
283 283 282 282 283 283 281 280 281 283 284 282 281 281 280 278 276 275 274 273 273 273 273 270 269 269 270 272 272 270 268 268 270 272 274 275 276 278 278 277 276 274 273
282 281 282 282 283 284 282 280 279 281 282 282 281 280 279 278 276 277 276 275 273 273 274 272 272 271 271 272 272 271 269 268 270 271 273 274 275 278 278 278 276 274 274
281 282 282 281 281 282 283 282 278 281 283 283 281 281 280 279 277 277 277 276 274 274 275 275 274 273 271 272 273 271 270 270 271 273 274 275 275 276 277 278 277 275 276
284 285 284 282 280 280 281 281 281 280 281 282 281 282 282 281 280 279 277 276 274 275 275 276 275 273 272 272 273 273 271 271 273 274 274 275 276 278 277 278 278 277 275
284 284 283 282 280 279 281 281 280 281 282 283 283 283 284 283 282 280 277 276 275 275 276 276 275 273 273 273 272 273 273 274 275 275 276 277 277 279 279 279 280 278 276
281 281 281 281 281 279 279 278 279 280 281 282 281 282 283 284 281 280 279 277 276 277 276 276 275 274 274 273 272 272 273 275 276 277 277 278 278 279 280 279 278 278 276
280 278 278 279 280 279 278 279 280 280 281 281 281 281 281 282 282 281 280 281 279 277 277 277 275 274 274 275 273 273 274 275 275 276 277 279 280 281 281 280 279 280 279
278 277 277 277 277 278 278 279 280 281 281 281 281 281 281 281 281 281 281 282 283 281 279 279 276 274 273 272 270 271 272 274 275 276 278 279 280 281 281 281 281 281 281
277 276 276 276 277 278 278 279 279 280 280 280 281 281 281 281 281 281 282 282 284 283 282 280 278 275 273 273 272 271 272 274 276 278 279 281 282 281 281 281 282 282 282
Height
5843 5844 5844 5845 5845 5846 5847 5848 5849 5849 5850 5851 5851 5852 5853 5854 5855 5855 5856 5856 5857 5857 5857 5858 5858 5858 5858 5858 5858 5859 5859 5858 5858 5859 5859 5859 5859 5859 5859 5859 5859 5859 5859
5842 5842 5843 5843 5843 5844 5845 5845 5846 5847 5848 5848 5849 5850 5850 5851 5852 5853 5853 5854 5854 5854 5855 5855 5855 5855 5855 5856 5856 5856 5856 5856 5856 5856 5856 5856 5855 5855 5855 5855 5855 5855 5856
5840 5840 5841 5841 5842 5842 5843 5843 5844 5845 5845 5846 5847 5847 5848 5848 5849 5850 5850 5851 5851 5852 5852 5852 5852 5852 5852 5853 5853 5853 5853 5853 5852 5852 5852 5852 5852 5852 5852 5852 5852 5852 5852
5838 5838 5839 5839 5840 5840 5841 5841 5842 5842 5843 5843 5844 5845 5845 5846 5846 5847 5848 5848 5848 5849 5849 5849 5849 5849 5849 5849 5849 5849 5849 5849 5849 5849 5849 5849 5849 5848 5849 5849 5849 5849 5849
5836 5836 5837 5837 5837 5838 5838 5839 5839 5840 5840 5841 5841 5842 5842 5843 5843 5844 5845 5845 5845 5846 5846 5846 5846 5846 5846 5846 5846 5846 5846 5846 5846 5846 5846 5846 5845 5845 5845 5845 5846 5846 5846
5835 5835 5835 5835 5835 5835 5836 5836 5837 5837 5837 5838 5838 5839 5839 5840 5840 5841 5841 5842 5842 5842 5843 5843 5843 5843 5843 5843 5843 5843 5843 5842 5842 5842 5842 5842 5842 5842 5842 5842 5842 5842 5842
5833 5833 5833 5833 5833 5833 5833 5834 5834 5834 5834 5835 5835 5836 5836 5836 5837 5837 5838 5838 5839 5839 5839 5839 5839 5840 5840 5839 5839 5839 5839 5839 5839 5839 5839 5839 5838 5838 5838 5838 5838 5838 5838
5831 5831 5831 5830 5830 5830 5831 5831 5831 5832 5831 5832 5832 5832 5833 5833 5833 5833 5834 5834 5835 5835 5836 5836 5836 5836 5836 5836 5836 5836 5835 5835 5835 5835 5835 5835 5835 5834 5834 5834 5834 5834 5834
5829 5829 5828 5828 5828 5828 5828 5828 5828 5829 5828 5828 5829 5829 5829 5830 5830 5830 5830 5831 5831 5831 5832 5832 5832 5832 5832 5832 5832 5832 5832 5832 5831 5831 5831 5831 5831 5831 5831 5831 5831 5831 5831
5826 5826 5826 5826 5825 5825 5825 5825 5825 5825 5825 5825 5825 5825 5826 5826 5826 5826 5826 5826 5827 5827 5828 5828 5828 5828 5828 5828 5828 5828 5828 5828 5828 5827 5827 5827 5827 5827 5827 5827 5827 5827 5827
5824 5823 5823 5823 5822 5822 5822 5822 5822 5822 5822 5822 5822 5821 5821 5821 5821 5822 5822 5822 5822 5823 5823 5823 5824 5824 5824 5824 5824 5824 5824 5824 5824 5824 5823 5823 5823 5823 5823 5823 5823 5823 5823
5821 5820 5820 5819 5819 5819 5819 5819 5818 5818 5818 5818 5818 5817 5817 5817 5817 5817 5817 5817 5817 5818 5818 5818 5819 5819 5819 5820 5820 5820 5820 5820 5819 5819 5819 5819 5819 5819 5819 5819 5818 5818 5818
5818 5817 5816 5816 5816 5815 5815 5815 5815 5814 5814 5813 5813 5813 5812 5812 5812 5812 5812 5812 5813 5813 5813 5813 5814 5814 5815 5815 5815 5815 5815 5815 5815 5815 5815 5815 5815 5814 5814 5814 5814 5814 5813
5814 5813 5813 5812 5812 5811 5811 5811 5810 5810 5809 5809 5808 5808 5807 5807 5807 5807 5807 5807 5807 5808 5808 5808 5808 5809 5809 5810 5810 5810 5810 5810 5810 5810 5810 5810 5810 5810 5809 5809 5809 5809 5808
5810 5809 5809 5808 5808 5807 5807 5806 5806 5805 5805 5804 5803 5803 5803 5802 5802 5802 5801 5802 5802 5802 5803 5803 5803 5803 5804 5805 5805 5805 5805 5805 5805 5805 5805 5805 5805 5805 5804 5804 5804 5803 5803
5806 5806 5805 5804 5804 5803 5803 5802 5802 5801 5800 5800 5799 5798 5798 5797 5797 5797 5796 5796 5797 5797 5797 5798 5798 5798 5799 5799 5800 5800 5800 5800 5800 5800 5800 5800 5800 5799 5799 5798 5798 5798 5798
5802 5801 5801 5800 5799 5799 5798 5798 5797 5796 5796 5795 5794 5793 5793 5792 5792 5791 5791 5791 5791 5791 5792 5792 5792 5793 5793 5794 5794 5794 5794 5794 5795 5795 5795 5794 5794 5794 5793 5792 5792 5792 5792
5798 5797 5796 5795 5795 5794 5793 5792 5792 5791 5791 5790 5789 5788 5787 5787 5786 5786 5786 5786 5786 5786 5786 5787 5787 5788 5788 5788 5788 5788 5789 5789 5789 5789 5789 5789 5788 5788 5787 5786 5786 5786 5785
5793 5792 5791 5790 5790 5789 5788 5787 5787 5786 5786 5785 5784 5783 5783 5782 5781 5781 5781 5781 5781 5781 5781 5781 5782 5782 5782 5782 5782 5782 5782 5783 5783 5783 5783 5783 5782 5782 5781 5780 5780 5779 5779
5788 5787 5786 5785 5784 5784 5783 5782 5782 5782 5781 5780 5779 5778 5778 5777 5777 5776 5776 5776 5776 5775 5775 5776 5775 5776 5776 5776 5776 5776 5776 5777 5777 5777 5777 5776 5776 5775 5775 5774 5773 5773 5772
5783 5782 5780 5780 5779 5779 5778 5777 5777 5776 5776 5775 5774 5773 5773 5772 5771 5770 5770 5770 5770 5770 5770 5770 5769 5769 5769 5769 5770 5770 5770 5770 5770 5770 5770 5770 5769 5769 5768 5768 5767 5766 5766
5777 5776 5775 5774 5774 5773 5773 5772 5772 5772 5771 5770 5769 5768 5767 5766 5766 5765 5765 5764 5764 5764 5763 5763 5763 5763 5763 5763 5763 5763 5764 5764 5764 5764 5764 5763 5762 5762 5761 5760 5759 5759 5758
5772 5771 5770 5769 5769 5768 5768 5767 5767 5766 5766 5765 5764 5763 5763 5762 5761 5760 5759 5758 5758 5757 5757 5757 5756 5756 5756 5756 5756 5757 5757 5757 5757 5757 5756 5756 5755 5754 5753 5752 5752 5751 5750
5766 5765 5765 5764 5763 5763 5762 5762 5761 5761 5760 5759 5759 5758 5757 5756 5755 5754 5753 5752 5751 5751 5750 5750 5750 5749 5749 5749 5749 5750 5750 5750 5749 5749 5748 5748 5747 5746 5745 5744 5743 5742 5742
5761 5760 5759 5758 5758 5757 5757 5756 5756 5755 5754 5754 5753 5752 5751 5751 5750 5748 5747 5747 5745 5744 5744 5743 5743 5743 5742 5742 5742 5742 5742 5742 5742 5741 5741 5741 5740 5739 5737 5736 5735 5733 5732
5755 5754 5754 5753 5752 5752 5751 5750 5750 5749 5748 5748 5747 5746 5745 5744 5743 5742 5741 5740 5740 5738 5737 5736 5736 5735 5735 5734 5734 5734 5734 5734 5734 5734 5733 5732 5731 5730 5729 5728 5726 5724 5723